Terug naar catalogus

RAWHIDE-1

ActiefWetenschapVLEO
NORAD 68629·PAYLOAD·🇺🇸 United States

Gelanceerd Apr 7, 2026 vanaf Vandenberg Space Force Base

Loading…

Volgende Passages (komende 24 uur)

TLE

VersSource: Space-Track

Epoch: Sep 13, 2026, 22:52 UTC

1 68629U 26074C   26256.95345940  .00002119  00000-0  94345-4 0  9992
2 68629  60.0209 197.3922 0038570  85.6420 274.9066 15.24967865 24329

Volg RAWHIDE-1 in realtime met AllMySat

Download on the App Store